| time (UTC) | temp C | wind direction | speed KPH | gust KPH | rain 1hr cm | rain 24hr cm | rain mn cm | humidity % | barometer mb |
| 20260505041529 | 16 | 132 | 0.0 | 0.0 | 0.00 | 0.00 | 0.00 | 16 | 1010.1 |
| 20260505040029 | 16 | 151 | 0.0 | 0.0 | 0.00 | 0.00 | 0.00 | 18 | 1010.2 |
| 20260505034523 | 16 | 151 | 0.0 | 0.0 | 0.00 | 0.00 | 0.00 | 20 | 1010.0 |
| 20260505033022 | 16 | 185 | 0.0 | 0.0 | 0.00 | 0.00 | 0.00 | 18 | 1010.1 |
| 20260505031513 | 16 | 185 | 0.0 | 0.0 | 0.00 | 0.00 | 0.00 | 14 | 1010.2 |
| 20260505030007 | 17 | 185 | 0.0 | 0.0 | 0.00 | 0.00 | 0.00 | 21 | 1010.1 |
| 20260505024502 | 17 | 185 | 0.0 | 0.0 | 0.00 | 0.00 | 0.00 | 29 | 1009.9 |
| 20260505023058 | 17 | 184 | 0.0 | 0.0 | 0.00 | 0.00 | 0.00 | 34 | 1009.9 |
| 20260505021555 | 17 | 175 | 0.0 | 0.0 | 0.00 | 0.00 | 0.00 | 37 | 1009.5 |
| 20260505020051 | 18 | 175 | 0.0 | 0.0 | 0.00 | 0.00 | 0.00 | 51 | 1009.5 |
| 20260505014601 | 18 | 181 | 0.0 | 0.0 | 0.00 | 0.00 | 0.00 | 48 | 1009.4 |
| 20260505013042 | 19 | 181 | 0.0 | 0.0 | 0.00 | 0.00 | 0.00 | 50 | 1009.4 |
| 20260505011545 | 20 | 181 | 0.0 | 0.0 | 0.00 | 0.00 | 0.00 | 58 | 1009.2 |
| 20260505010032 | 21 | 181 | 0.0 | 0.0 | 0.00 | 0.00 | 0.00 | 57 | 1009.3 |
| 20260505004528 | 22 | 181 | 0.0 | 0.0 | 0.00 | 0.00 | 0.00 | 54 | 1009.2 |
| 20260505003022 | 23 | 200 | 0.0 | 0.0 | 0.00 | 0.00 | 0.00 | 50 | 1009.1 |
| 20260505001518 | 24 | 155 | 0.0 | 0.0 | 0.00 | 0.00 | 0.00 | 48 | 1009.2 |
| 20260505000015 | 25 | 197 | 0.0 | 0.0 | 0.00 | 0.00 | 0.00 | 46 | 1009.2 |
| 20260504234509 | 25 | 167 | 0.0 | 0.0 | 0.00 | 0.00 | 0.00 | 45 | 1009.2 |
| 20260504233005 | 25 | 228 | 0.0 | 0.0 | 0.00 | 0.00 | 0.00 | 45 | 1009.2 |
| 20260504231600 | 25 | 153 | 0.0 | 0.0 | 0.00 | 0.00 | 0.00 | 44 | 1009.3 |
| 20260504230056 | 26 | 201 | 0.0 | 11.3 | 0.00 | 0.00 | 0.00 | 43 | 1009.3 |
| 20260504224551 | 26 | 230 | 0.0 | 6.4 | 0.00 | 0.00 | 0.00 | 42 | 1009.2 |
| 20260504223046 | 26 | 221 | 0.0 | 12.9 | 0.00 | 0.00 | 0.00 | 40 | 1009.4 |
| 20260504221543 | 26 | 252 | 0.0 | 0.0 | 0.00 | 0.00 | 0.00 | 42 | 1009.7 |
| 20260504220038 | 26 | 232 | 0.0 | 8.0 | 0.00 | 0.00 | 0.00 | 41 | 1009.7 |
| 20260504214533 | 26 | 255 | 0.0 | 9.7 | 0.00 | 0.00 | 0.00 | 41 | 1009.8 |
| 20260504213029 | 26 | 296 | 0.0 | 12.9 | 0.00 | 0.00 | 0.00 | 42 | 1010.1 |
| 20260504211524 | 26 | 288 | 0.0 | 17.7 | 0.00 | 0.00 | 0.00 | 43 | 1010.3 |
| 20260504210033 | 26 | 246 | 0.0 | 19.3 | 0.00 | 0.00 | 0.00 | 42 | 1010.4 |
| 20260504204528 | 26 | 236 | 4.8 | 22.5 | 0.00 | 0.00 | 0.00 | 40 | 1010.5 |
| 20260504203011 | 26 | 254 | 0.0 | 11.3 | 0.00 | 0.00 | 0.00 | 42 | 1010.8 |
| 20260504201507 | 26 | 246 | 0.0 | 9.7 | 0.00 | 0.00 | 0.00 | 41 | 1010.9 |
| 20260504200002 | 26 | 231 | 1.6 | 12.9 | 0.00 | 0.00 | 0.00 | 41 | 1011.2 |
| 20260504194559 | 26 | 269 | 3.2 | 24.1 | 0.00 | 0.00 | 0.00 | 43 | 1011.4 |
| 20260504193056 | 26 | 148 | 0.0 | 16.1 | 0.00 | 0.00 | 0.00 | 41 | 1011.6 |
| 20260504191553 | 26 | 290 | 0.0 | 14.5 | 0.00 | 0.00 | 0.00 | 42 | 1011.8 |
| 20260504190047 | 26 | 160 | 0.0 | 12.9 | 0.00 | 0.00 | 0.00 | 43 | 1012.0 |
| 20260504184540 | 25 | 270 | 0.0 | 14.5 | 0.00 | 0.00 | 0.00 | 46 | 1012.1 |
| 20260504183036 | 25 | 247 | 0.0 | 19.3 | 0.00 | 0.00 | 0.00 | 45 | 1012.2 |
| 20260504181531 | 25 | 220 | 3.2 | 19.3 | 0.00 | 0.00 | 0.00 | 43 | 1012.3 |
| 20260504180026 | 25 | 214 | 0.0 | 16.1 | 0.00 | 0.00 | 0.00 | 45 | 1012.4 |
| 20260504174522 | 25 | 281 | 1.6 | 17.7 | 0.00 | 0.00 | 0.00 | 47 | 1012.5 |
| 20260504173018 | 25 | 176 | 0.0 | 3.2 | 0.00 | 0.00 | 0.00 | 49 | 1012.9 |
| 20260504171513 | 24 | 296 | 1.6 | 16.1 | 0.00 | 0.00 | 0.00 | 49 | 1013.0 |
| 20260504081536 | 11 | 205 | 0.0 | 0.0 | 0.00 | 0.00 | 0.00 | 1 | 1013.9 |
| 20260504044536 | 12 | 186 | 0.0 | 0.0 | 0.00 | 0.00 | 0.00 | 1 | 1015.2 |
| 20260504043031 | 12 | 186 | 0.0 | 0.0 | 0.00 | 0.00 | 0.00 | 1 | 1015.3 |